| time (UTC) | temp C | wind direction | speed KPH | gust KPH | rain 1hr cm | rain 24hr cm | rain mn cm | humidity % | barometer mb |
| 20260506191534 | 13 | 243 | 6.4 | 17.7 | 0.00 | 0.03 | 0.03 | 90 | 1008.4 |
| 20260506190028 | 13 | 202 | 6.4 | 17.7 | 0.03 | 0.03 | 0.03 | 90 | 1008.5 |
| 20260506184531 | 13 | 224 | 8.0 | 16.1 | 0.03 | 0.03 | 0.03 | 90 | 1008.7 |
| 20260506183028 | 13 | 200 | 6.4 | 19.3 | 0.03 | 0.03 | 0.03 | 90 | 1008.9 |
| 20260506181534 | 13 | 190 | 6.4 | 17.7 | 0.03 | 0.03 | 0.03 | 91 | 1009.2 |
| 20260506180034 | 13 | 207 | 6.4 | 14.5 | 0.00 | 0.00 | 0.00 | 90 | 1009.4 |
| 20260506174532 | 13 | 246 | 8.0 | 17.7 | 0.00 | 0.00 | 0.00 | 90 | 1009.6 |
| 20260506173028 | 13 | 241 | 8.0 | 19.3 | 0.00 | 0.00 | 0.00 | 89 | 1009.9 |
| 20260506171547 | 13 | 240 | 6.4 | 16.1 | 0.00 | 0.00 | 0.00 | 88 | 1010.0 |
| 20260506170036 | 13 | 250 | 8.0 | 17.7 | 0.00 | 0.00 | 0.00 | 86 | 1010.1 |
| 20260506164533 | 14 | 255 | 9.7 | 19.3 | 0.00 | 0.00 | 0.00 | 86 | 1010.1 |
| 20260506163030 | 14 | 182 | 8.0 | 20.9 | 0.00 | 0.00 | 0.00 | 86 | 1010.1 |
| 20260506161529 | 14 | 270 | 8.0 | 19.3 | 0.00 | 0.00 | 0.00 | 85 | 1010.4 |
| 20260506160032 | 14 | 202 | 8.0 | 20.9 | 0.00 | 0.00 | 0.00 | 84 | 1010.6 |
| 20260506154532 | 15 | 200 | 6.4 | 24.1 | 0.00 | 0.00 | 0.00 | 84 | 1010.8 |
| 20260506153032 | 15 | 244 | 6.4 | 20.9 | 0.00 | 0.00 | 0.00 | 84 | 1010.9 |
| 20260506151535 | 15 | 188 | 8.0 | 19.3 | 0.00 | 0.00 | 0.00 | 84 | 1010.6 |
| 20260506150030 | 15 | 221 | 4.8 | 12.9 | 0.00 | 0.00 | 0.00 | 84 | 1010.9 |
| 20260506144528 | 15 | 261 | 6.4 | 19.3 | 0.00 | 0.00 | 0.00 | 83 | 1011.2 |
| 20260506143028 | 15 | 182 | 8.0 | 19.3 | 0.00 | 0.00 | 0.00 | 83 | 1011.1 |
| 20260506141529 | 15 | 220 | 4.8 | 19.3 | 0.00 | 0.00 | 0.00 | 84 | 1011.3 |
| 20260506140030 | 15 | 210 | 6.4 | 19.3 | 0.00 | 0.00 | 0.00 | 85 | 1011.6 |
| 20260506134531 | 14 | 259 | 9.7 | 17.7 | 0.00 | 0.00 | 0.00 | 85 | 1011.5 |
| 20260506133043 | 14 | 218 | 8.0 | 17.7 | 0.00 | 0.00 | 0.00 | 86 | 1011.4 |
| 20260506131532 | 13 | 215 | 6.4 | 17.7 | 0.00 | 0.00 | 0.00 | 86 | 1011.2 |
| 20260506130028 | 14 | 174 | 8.0 | 20.9 | 0.00 | 0.00 | 0.00 | 86 | 1011.4 |
| 20260506124531 | 14 | 242 | 8.0 | 16.1 | 0.00 | 0.00 | 0.00 | 87 | 1011.5 |
| 20260506123031 | 13 | 188 | 9.7 | 22.5 | 0.00 | 0.00 | 0.00 | 87 | 1011.5 |
| 20260506121530 | 13 | 207 | 8.0 | 22.5 | 0.00 | 0.00 | 0.00 | 87 | 1011.4 |
| 20260506120036 | 13 | 137 | 4.8 | 16.1 | 0.00 | 0.00 | 0.00 | 89 | 1011.3 |
| 20260506114529 | 13 | 205 | 9.7 | 22.5 | 0.00 | 0.00 | 0.00 | 90 | 1011.3 |
| 20260506113035 | 13 | 238 | 6.4 | 17.7 | 0.00 | 0.00 | 0.00 | 90 | 1011.4 |
| 20260506111531 | 13 | 202 | 4.8 | 19.3 | 0.00 | 0.00 | 0.00 | 90 | 1011.5 |
| 20260506110034 | 13 | 234 | 6.4 | 24.1 | 0.00 | 0.00 | 0.00 | 90 | 1011.4 |
| 20260506104528 | 13 | 225 | 6.4 | 14.5 | 0.00 | 0.00 | 0.00 | 91 | 1011.4 |
| 20260506103036 | 12 | 195 | 6.4 | 17.7 | 0.00 | 0.00 | 0.00 | 91 | 1011.2 |
| 20260506101539 | 12 | 194 | 8.0 | 20.9 | 0.00 | 0.00 | 0.00 | 91 | 1011.3 |
| 20260506100033 | 12 | 233 | 6.4 | 17.7 | 0.00 | 0.00 | 0.00 | 91 | 1011.2 |
| 20260506094529 | 13 | 179 | 6.4 | 19.3 | 0.00 | 0.00 | 0.00 | 91 | 1011.2 |
| 20260506093028 | 13 | 165 | 6.4 | 19.3 | 0.00 | 0.00 | 0.00 | 91 | 1011.0 |
| 20260506091528 | 13 | 244 | 6.4 | 17.7 | 0.00 | 0.00 | 0.00 | 90 | 1011.1 |
| 20260506090030 | 13 | 250 | 4.8 | 17.7 | 0.00 | 0.00 | 0.00 | 91 | 1011.2 |
| 20260506084535 | 13 | 254 | 8.0 | 20.9 | 0.00 | 0.00 | 0.00 | 91 | 1011.5 |
| 20260506083033 | 13 | 190 | 6.4 | 22.5 | 0.00 | 0.00 | 0.00 | 91 | 1011.5 |
| 20260506081530 | 13 | 209 | 8.0 | 20.9 | 0.00 | 0.00 | 0.00 | 90 | 1011.6 |
| 20260506073030 | 13 | 245 | 3.2 | 17.7 | 0.00 | 0.00 | 0.00 | 89 | 1012.1 |
| 20260506071530 | 13 | 254 | 9.7 | 19.3 | 0.00 | 0.00 | 0.00 | 88 | 1011.9 |
| 20260506061529 | 13 | 230 | 6.4 | 14.5 | 0.00 | 0.00 | 0.00 | 88 | 1011.7 |
| 20260506044530 | 13 | 227 | 6.4 | 17.7 | 0.00 | 0.00 | 0.00 | 87 | 1012.0 |
| 20260506043030 | 13 | 236 | 6.4 | 19.3 | 0.00 | 0.00 | 0.00 | 87 | 1012.2 |
| 20260506041530 | 13 | 215 | 8.0 | 30.6 | 0.00 | 0.00 | 0.00 | 87 | 1012.2 |
| 20260506040037 | 13 | 213 | 4.8 | 19.3 | 0.00 | 0.00 | 0.00 | 87 | 1012.3 |
| 20260506034529 | 13 | 238 | 6.4 | 19.3 | 0.00 | 0.00 | 0.00 | 87 | 1012.6 |
| 20260506033034 | 13 | 233 | 3.2 | 16.1 | 0.00 | 0.00 | 0.00 | 87 | 1012.5 |
| 20260506031528 | 13 | 0 | 1.6 | 16.1 | 0.00 | 0.00 | 0.00 | 87 | 1012.5 |
| 20260506030030 | 13 | 233 | 6.4 | 19.3 | 0.00 | 0.00 | 0.00 | 87 | 1012.6 |
| 20260506024530 | 13 | 271 | 4.8 | 12.9 | 0.00 | 0.00 | 0.00 | 86 | 1012.6 |
| 20260506023031 | 13 | 243 | 1.6 | 14.5 | 0.00 | 0.00 | 0.00 | 85 | 1012.6 |
| 20260506021534 | 13 | 244 | 6.4 | 17.7 | 0.00 | 0.00 | 0.00 | 85 | 1012.3 |
| 20260506020033 | 13 | 227 | 6.4 | 17.7 | 0.00 | 0.00 | 0.00 | 84 | 1012.3 |
| 20260506014529 | 13 | 257 | 8.0 | 19.3 | 0.00 | 0.00 | 0.00 | 84 | 1012.2 |
| 20260506013028 | 13 | 234 | 8.0 | 16.1 | 0.00 | 0.00 | 0.00 | 84 | 1012.1 |
| 20260506011531 | 13 | 240 | 8.0 | 16.1 | 0.00 | 0.00 | 0.00 | 83 | 1011.9 |
| 20260506010044 | 13 | 227 | 6.4 | 19.3 | 0.00 | 0.00 | 0.00 | 82 | 1011.7 |
| 20260506004528 | 14 | 217 | 8.0 | 24.1 | 0.00 | 0.00 | 0.00 | 81 | 1011.4 |
| 20260506003030 | 14 | 223 | 8.0 | 25.7 | 0.00 | 0.00 | 0.00 | 81 | 1011.3 |
| 20260506001528 | 14 | 227 | 12.9 | 24.1 | 0.00 | 0.00 | 0.00 | 81 | 1011.1 |
| 20260506000028 | 14 | 200 | 9.7 | 25.7 | 0.00 | 0.00 | 0.00 | 81 | 1010.9 |
| 20260505234539 | 14 | 217 | 9.7 | 22.5 | 0.00 | 0.00 | 0.00 | 81 | 1010.6 |
| 20260505233035 | 14 | 260 | 9.7 | 24.1 | 0.00 | 0.00 | 0.00 | 81 | 1010.4 |
| 20260505231531 | 14 | 250 | 11.3 | 24.1 | 0.00 | 0.00 | 0.00 | 80 | 1010.3 |
| 20260505230029 | 15 | 229 | 9.7 | 27.4 | 0.00 | 0.00 | 0.00 | 80 | 1010.0 |
| 20260505224533 | 15 | 244 | 9.7 | 24.1 | 0.00 | 0.00 | 0.00 | 80 | 1010.0 |
| 20260505223028 | 15 | 234 | 11.3 | 22.5 | 0.00 | 0.00 | 0.00 | 80 | 1009.9 |
| 20260505221529 | 15 | 205 | 11.3 | 29.0 | 0.00 | 0.00 | 0.00 | 80 | 1009.9 |
| 20260505220031 | 15 | 221 | 9.7 | 27.4 | 0.00 | 0.00 | 0.00 | 79 | 1009.8 |
| 20260505214556 | 15 | 200 | 9.7 | 24.1 | 0.00 | 0.00 | 0.00 | 79 | 1009.5 |
| 20260505213030 | 15 | 180 | 9.7 | 20.9 | 0.00 | 0.00 | 0.00 | 78 | 1009.5 |
| 20260505211531 | 15 | 199 | 9.7 | 24.1 | 0.00 | 0.00 | 0.00 | 77 | 1009.3 |
| 20260505210030 | 15 | 221 | 8.0 | 29.0 | 0.00 | 0.00 | 0.00 | 77 | 1009.2 |
| 20260505204529 | 15 | 247 | 8.0 | 22.5 | 0.00 | 0.00 | 0.00 | 77 | 1009.3 |
| 20260505203036 | 16 | 189 | 8.0 | 20.9 | 0.00 | 0.00 | 0.00 | 76 | 1009.5 |
| 20260505201536 | 16 | 168 | 8.0 | 17.7 | 0.00 | 0.00 | 0.00 | 76 | 1009.4 |
| 20260505200027 | 16 | 260 | 8.0 | 19.3 | 0.00 | 0.00 | 0.00 | 76 | 1009.6 |
| 20260505194531 | 16 | 178 | 6.4 | 19.3 | 0.00 | 0.00 | 0.00 | 76 | 1010.0 |
| 20260505193031 | 16 | 229 | 8.0 | 27.4 | 0.00 | 0.00 | 0.00 | 77 | 1010.2 |